Powrót do katalogu

RANDEV

AktywnyNaukaSSO
NORAD 52898·PAYLOAD·🇰🇷 South Korea

Wystrzelony Jun 21, 2022 z Naro Space Center

Loading…

Następne Przeloty (najbliższe 24 godziny)

TLE

ŚwieżeSource: Space-Track

Epoka: Sep 14, 2026, 14:49 UTC

1 52898U 22065E   26257.61788486  .00000459  00000-0  97232-4 0  9992
2 52898  98.2343  41.7076 0009155 102.8212 257.4014 14.63810127224334

Śledź RANDEV w czasie rzeczywistym z AllMySat

Download on the App Store